TimeCDT,TemperatureF,Dew PointF,Humidity,Sea Level PressureIn,VisibilityMPH,Wind Direction,Wind SpeedMPH,Gust SpeedMPH,PrecipitationIn,Events,Conditions,WindDirDegrees,DateUTC
12:15 AM,48.2,46.4,93,29.70,9.0,North,9.2,-,N/A,,Overcast,350,2012-10-25 05:15:00
12:16 AM,48.2,46.4,93,29.70,9.0,North,9.2,-,N/A,,Overcast,350,2012-10-25 05:16:00
12:47 AM,46.4,46.4,100,29.69,10.0,North,8.1,-,N/A,,Overcast,350,2012-10-25 05:47:00
12:55 AM,47.1,46.0,96,29.69,10.0,NNW,8.1,-,0.00,,Overcast,340,2012-10-25 05:55:00
1:02 AM,46.4,46.4,100,29.69,8.0,North,9.2,-,N/A,Rain,Light Rain,360,2012-10-25 06:02:00
1:40 AM,46.4,46.4,100,29.67,9.0,North,10.4,17.3,N/A,,Overcast,360,2012-10-25 06:40:00
1:41 AM,46.4,46.4,100,29.68,9.0,NNW,9.2,17.3,N/A,,Overcast,340,2012-10-25 06:41:00
1:48 AM,46.4,46.4,100,29.75,7.0,WNW,29.9,36.8,N/A,Rain,Light Rain,290,2012-10-25 06:48:00
1:55 AM,46.4,44.8,94,29.67,4.0,NNW,10.4,36.8,0.01,Rain,Light Rain,340,2012-10-25 06:55:00
2:19 AM,44.6,42.8,93,29.67,4.0,North,11.5,21.9,N/A,Rain-Thunderstorm,Light Thunderstorms and Rain,360,2012-10-25 07:19:00
2:23 AM,44.6,42.8,93,29.67,6.0,North,16.1,20.7,N/A,Rain-Thunderstorm,Light Thunderstorms and Rain,350,2012-10-25 07:23:00
2:26 AM,44.6,42.8,93,29.67,7.0,North,11.5,20.7,N/A,Rain-Thunderstorm,Light Thunderstorms and Rain,350,2012-10-25 07:26:00
2:27 AM,44.6,42.8,93,29.68,7.0,North,12.7,20.7,N/A,Rain-Thunderstorm,Light Thunderstorms and Rain,350,2012-10-25 07:27:00
2:30 AM,44.6,42.8,93,29.68,7.0,NNW,11.5,20.7,N/A,Rain-Thunderstorm,Heavy Thunderstorms and Rain,340,2012-10-25 07:30:00
2:31 AM,44.6,42.8,93,29.68,7.0,NNW,12.7,20.7,N/A,Rain-Thunderstorm,Heavy Thunderstorms and Rain,340,2012-10-25 07:31:00
2:34 AM,44.6,42.8,93,29.72,6.0,WNW,17.3,24.2,N/A,Rain-Thunderstorm,Heavy Thunderstorms and Rain,300,2012-10-25 07:34:00
2:35 AM,44.6,42.8,93,29.74,6.0,WNW,19.6,24.2,N/A,Rain-Thunderstorm,Heavy Thunderstorms and Rain,300,2012-10-25 07:35:00
2:43 AM,44.6,42.8,93,29.67,4.0,NNW,15.0,24.2,N/A,Rain-Thunderstorm,Heavy Thunderstorms and Rain,330,2012-10-25 07:43:00
2:50 AM,44.6,42.8,93,29.74,4.0,NNW,11.5,26.5,N/A,Rain-Thunderstorm,Thunderstorms and Rain,330,2012-10-25 07:50:00
2:55 AM,44.1,41.9,92,29.74,4.0,NNE,16.1,24.2,0.28,Rain-Thunderstorm,Heavy Thunderstorms and Rain,30,2012-10-25 07:55:00
3:02 AM,44.6,41.0,87,29.69,3.0,NE,12.7,24.2,N/A,Rain-Thunderstorm,Heavy Thunderstorms and Rain,40,2012-10-25 08:02:00
3:18 AM,44.6,42.8,93,29.72,7.0,NW,11.5,-,N/A,Rain-Thunderstorm,Thunderstorms and Rain,310,2012-10-25 08:18:00
3:20 AM,44.6,42.8,93,29.72,8.0,WNW,12.7,-,N/A,Rain-Thunderstorm,Rain,300,2012-10-25 08:20:00
3:28 AM,44.6,42.8,93,29.73,8.0,WNW,12.7,-,N/A,Rain-Thunderstorm,Light Rain,300,2012-10-25 08:28:00
3:30 AM,44.6,42.8,93,29.73,9.0,WNW,10.4,-,N/A,Rain-Thunderstorm,Light Rain,300,2012-10-25 08:30:00
3:42 AM,44.6,42.8,93,29.73,10.0,NW,10.4,-,N/A,Rain,Light Rain,320,2012-10-25 08:42:00
3:55 AM,44.1,41.9,92,29.74,10.0,WNW,13.8,-,0.21,Rain,Light Rain,300,2012-10-25 08:55:00
4:09 AM,44.6,41.0,87,29.73,8.0,NW,15.0,20.7,N/A,Rain,Heavy Rain,310,2012-10-25 09:09:00
4:18 AM,42.8,41.0,93,29.75,8.0,NW,18.4,25.3,N/A,Rain,Rain,310,2012-10-25 09:18:00
4:35 AM,42.8,41.0,93,29.74,10.0,NW,13.8,23.0,N/A,Rain,Rain,320,2012-10-25 09:35:00
4:41 AM,42.8,41.0,93,29.75,9.0,NW,18.4,26.5,N/A,Rain,Light Rain,320,2012-10-25 09:41:00
4:55 AM,42.1,39.4,90,29.74,5.0,NNW,16.1,24.2,0.11,Rain,Heavy Rain,340,2012-10-25 09:55:00
5:27 AM,41.0,39.2,93,29.78,10.0,NW,16.1,21.9,N/A,Rain,Light Rain,320,2012-10-25 10:27:00
5:55 AM,40.8,37.9,89,29.80,6.0,NW,12.7,27.6,0.04,Rain,Light Rain,320,2012-10-25 10:55:00
6:55 AM,39.9,36.7,88,29.83,10.0,NW,19.6,29.9,0.06,Rain,Light Rain,320,2012-10-25 11:55:00
7:15 AM,41.0,37.4,87,29.84,10.0,NW,15.0,29.9,N/A,,Overcast,320,2012-10-25 12:15:00
7:30 AM,41.0,37.4,87,29.85,10.0,NW,15.0,25.3,N/A,,Light Drizzle,320,2012-10-25 12:30:00
7:37 AM,41.0,37.4,87,29.85,10.0,NW,15.0,25.3,N/A,,Overcast,310,2012-10-25 12:37:00
7:49 AM,41.0,37.4,87,29.86,7.0,NW,16.1,25.3,N/A,,Overcast,320,2012-10-25 12:49:00
7:50 AM,41.0,37.4,87,29.86,6.0,NW,17.3,25.3,N/A,,Light Drizzle,310,2012-10-25 12:50:00
7:54 AM,41.0,37.4,87,29.87,5.0,NW,15.0,25.3,N/A,,Light Drizzle,310,2012-10-25 12:54:00
7:55 AM,40.1,37.2,89,29.87,4.0,NW,17.3,25.3,0.01,Rain,Light Rain,310,2012-10-25 12:55:00
8:00 AM,39.2,37.4,93,29.87,10.0,NNW,17.3,35.7,N/A,Rain,Light Rain,330,2012-10-25 13:00:00
8:26 AM,37.4,35.6,93,29.90,10.0,NW,19.6,32.2,N/A,Rain,Light Rain,310,2012-10-25 13:26:00
8:27 AM,37.4,35.6,93,29.90,10.0,NW,19.6,32.2,N/A,,Overcast,320,2012-10-25 13:27:00
8:36 AM,37.4,35.6,93,29.91,10.0,NNW,19.6,31.1,N/A,,Overcast,330,2012-10-25 13:36:00
8:55 AM,37.8,34.5,88,29.93,10.0,NNW,23.0,32.2,0.00,,Overcast,330,2012-10-25 13:55:00
9:08 AM,37.4,33.8,87,29.94,5.0,NNW,20.7,28.8,N/A,,Light Drizzle,330,2012-10-25 14:08:00
9:55 AM,37.8,34.3,87,29.97,6.0,NW,20.7,34.5,0.00,,Light Drizzle,320,2012-10-25 14:55:00
10:02 AM,37.4,33.8,87,29.98,6.0,NNW,23.0,32.2,N/A,,Overcast,330,2012-10-25 15:02:00
10:29 AM,37.4,33.8,87,30.00,6.0,NW,23.0,27.6,N/A,Rain,Light Rain,320,2012-10-25 15:29:00
10:55 AM,37.9,34.0,86,30.02,7.0,NNW,20.7,31.1,0.00,Rain,Light Rain,330,2012-10-25 15:55:00
11:05 AM,37.4,33.8,87,30.01,10.0,NNW,23.0,33.4,N/A,,Overcast,330,2012-10-25 16:05:00
11:25 AM,39.2,33.8,81,30.03,10.0,NW,19.6,32.2,N/A,,Overcast,320,2012-10-25 16:25:00
11:55 AM,39.6,33.6,79,30.05,10.0,NNW,20.7,31.1,0.00,,Overcast,330,2012-10-25 16:55:00
12:55 PM,39.9,32.9,76,30.09,10.0,NW,16.1,25.3,N/A,,Overcast,320,2012-10-25 17:55:00
1:55 PM,41.4,32.9,72,30.09,10.0,NW,16.1,23.0,N/A,,Overcast,320,2012-10-25 18:55:00
2:55 PM,40.5,31.6,71,30.12,10.0,NW,19.6,29.9,N/A,,Overcast,320,2012-10-25 19:55:00
3:55 PM,39.4,30.2,70,30.17,10.0,NW,16.1,25.3,N/A,,Overcast,320,2012-10-25 20:55:00
4:55 PM,39.0,28.9,67,30.20,10.0,NW,17.3,27.6,N/A,,Overcast,320,2012-10-25 21:55:00
5:55 PM,38.7,28.2,66,30.24,10.0,NNW,17.3,25.3,N/A,,Overcast,340,2012-10-25 22:55:00
6:55 PM,38.5,27.7,65,30.28,10.0,NW,18.4,24.2,N/A,,Overcast,310,2012-10-25 23:55:00
7:55 PM,37.6,27.7,67,30.32,10.0,NW,13.8,23.0,N/A,,Overcast,320,2012-10-26 00:55:00
8:55 PM,37.0,26.4,65,30.33,10.0,NW,17.3,25.3,N/A,,Overcast,320,2012-10-26 01:55:00
9:55 PM,37.0,26.4,65,30.35,10.0,NW,18.4,24.2,N/A,,Overcast,320,2012-10-26 02:55:00
10:42 PM,37.4,24.8,60,30.37,10.0,NNW,13.8,23.0,N/A,,Overcast,340,2012-10-26 03:42:00
10:55 PM,37.4,25.3,62,30.37,10.0,NNW,13.8,-,N/A,,Overcast,330,2012-10-26 03:55:00
11:55 PM,35.6,25.0,65,30.36,10.0,NNW,4.6,-,N/A,,Clear,330,2012-10-26 04:55:00